Simultaneous Nadir Overpasses (SNOs) Predictions

Prediction of SNOs between METOP-B and TERRA Satellite Orbit:

Table of predicted SNOs for the next 14.0 days since TLE Epoch: 7/9/2016
Index Date (METOP-B) Time (METOP-B) Lat,Lon (METOP-B) SZA (METOP-B ) Date (TERRA) Time (TERRA) Lat,Lon (TERRA) SZA (TERRA ) Distance(km) Time Diff (sec)
1 07/10/2016 05:07:58 -81.27, -30.42 118.20 07/10/2016 05:09:03 -81.28, -30.40 118.17 0.72 65
2 07/10/2016 05:58:38 81.28, 137.34 61.86 07/10/2016 05:58:29 81.28, 137.29 61.85 0.84 9
3 07/13/2016 00:42:22 -81.27, 36.10 117.81 07/13/2016 00:43:17 -81.27, 35.96 117.80 2.31 55
4 07/13/2016 01:33:03 81.27,-156.56 62.20 07/13/2016 01:32:43 81.27,-156.37 62.21 3.27 20
5 07/15/2016 20:16:48 -81.27, 102.22 117.42 07/15/2016 20:17:32 -81.26, 102.27 117.40 0.89 44
6 07/1
